GW5168 Weather Reports


time (UTC)temp
C
wind
direction
speed
KPH
gust
KPH
rain 1hr
cm
rain 24hr
cm
rain mn
cm
humidity
%
barometer
mb
20260506014056 22 0 1.6 19.3 0.00 0.00 0.00 45 1009.5
20260506013600 22 0 6.4 19.3 0.00 0.00 0.00 44 1009.4
20260506013058 22 0 6.4 17.7 0.00 0.00 0.00 45 1009.4
20260506012556 21 0 1.6 17.7 0.00 0.00 0.00 45 1009.4
20260506012057 21 187 1.6 17.7 0.00 0.00 0.00 46 1009.3
20260506011558 21 114 1.6 12.9 0.00 0.00 0.00 47 1009.3
20260506011056 21 0 1.6 16.1 0.00 0.00 0.00 46 1009.2
20260506010557 22 0 3.2 16.1 0.00 0.00 0.00 46 1009.1
20260506010100 22 145 1.6 12.9 0.00 0.00 0.00 45 1009.0
20260506005557 22 0 0.0 16.1 0.00 0.00 0.00 46 1009.0
20260506005056 22 0 1.6 16.1 0.00 0.00 0.00 45 1008.9
20260506004626 22 139 0.0 14.5 0.00 0.00 0.00 45 1008.8
20260506004055 22 198 1.6 20.9 0.00 0.00 0.00 44 1008.8
20260506003556 22 162 3.2 20.9 0.00 0.00 0.00 43 1008.7
20260506003057 22 0 3.2 14.5 0.00 0.00 0.00 43 1008.6
20260506002556 22 0 3.2 14.5 0.00 0.00 0.00 41 1008.7
20260506002059 22 244 1.6 17.7 0.00 0.00 0.00 40 1008.6
20260506001600 22 0 0.0 17.7 0.00 0.00 0.00 40 1008.6
20260506001055 23 0 4.8 17.7 0.00 0.00 0.00 40 1008.5
20260506000556 23 0 0.0 14.5 0.00 0.00 0.00 40 1008.6
20260506000057 23 183 1.6 14.5 0.00 0.00 0.00 38 1008.5
20260505235558 23 0 0.0 24.1 0.00 0.00 0.00 38 1008.5
20260505235056 23 0 3.2 24.1 0.00 0.00 0.00 38 1008.5
20260505234615 23 0 1.6 17.7 0.00 0.00 0.00 38 1008.4
20260505234056 23 0 3.2 16.1 0.00 0.00 0.00 38 1008.4
20260505233556 23 146 0.0 17.7 0.00 0.00 0.00 38 1008.3
20260505233056 23 0 3.2 17.7 0.00 0.00 0.00 37 1008.3
20260505232556 23 175 4.8 17.7 0.00 0.00 0.00 37 1008.3
20260505232056 24 128 3.2 19.3 0.00 0.00 0.00 37 1008.3
20260505231558 24 0 4.8 24.1 0.00 0.00 0.00 36 1008.3
20260505231056 24 215 6.4 24.1 0.00 0.00 0.00 35 1008.2
20260505230556 25 122 1.6 22.5 0.00 0.00 0.00 36 1008.2
20260505230058 25 263 1.6 27.4 0.00 0.00 0.00 36 1008.1
20260505225556 25 171 6.4 27.4 0.00 0.00 0.00 35 1008.1
20260505225056 25 253 1.6 22.5 0.00 0.00 0.00 35 1008.2
20260505224559 25 200 6.4 22.5 0.00 0.00 0.00 34 1008.1
20260505224056 25 170 0.0 17.7 0.00 0.00 0.00 34 1008.0
20260505223555 25 0 3.2 24.1 0.00 0.00 0.00 36 1007.9
20260505223105 25 184 3.2 29.0 0.00 0.00 0.00 34 1007.8
20260505222556 25 233 4.8 29.0 0.00 0.00 0.00 33 1007.8
20260505222057 25 176 4.8 17.7 0.00 0.00 0.00 33 1007.8
20260505221608 25 155 6.4 19.3 0.00 0.00 0.00 33 1008.0
20260505221056 26 0 3.2 20.9 0.00 0.00 0.00 32 1008.0
20260505220600 26 198 3.2 25.7 0.00 0.00 0.00 33 1008.0
20260505220138 26 270 6.4 29.0 0.00 0.00 0.00 33 1007.9
20260505215557 26 149 9.7 29.0 0.00 0.00 0.00 34 1007.9
20260505215056 26 164 9.7 30.6 0.00 0.00 0.00 32 1007.9
20260505214616 26 0 8.0 33.8 0.00 0.00 0.00 32 1007.9
20260505214055 26 217 8.0 33.8 0.00 0.00 0.00 33 1007.9
20260505213558 26 187 6.4 33.8 0.00 0.00 0.00 33 1007.9
20260505213056 25 168 3.2 22.5 0.00 0.00 0.00 33 1007.8
20260505212558 25 223 8.0 24.1 0.00 0.00 0.00 33 1007.8
20260505212056 25 148 11.3 24.1 0.00 0.00 0.00 33 1007.7
20260505211613 25 246 6.4 27.4 0.00 0.00 0.00 33 1007.6
20260505211056 25 240 6.4 27.4 0.00 0.00 0.00 32 1007.5
20260505210557 26 223 6.4 27.4 0.00 0.00 0.00 32 1007.6
20260505210058 26 194 4.8 27.4 0.00 0.00 0.00 31 1007.4
20260505205557 27 142 8.0 27.4 0.00 0.00 0.00 30 1007.3
20260505205057 27 117 6.4 27.4 0.00 0.00 0.00 30 1007.4
20260505204558 27 234 4.8 33.8 0.00 0.00 0.00 31 1007.5
20260505204056 26 163 12.9 33.8 0.00 0.00 0.00 31 1007.5
20260505203556 26 168 14.5 30.6 0.00 0.00 0.00 30 1007.6
20260505203059 26 192 9.7 30.6 0.00 0.00 0.00 29 1007.6
20260505202556 26 210 9.7 25.7 0.00 0.00 0.00 29 1007.7
20260505202100 27 240 12.9 25.7 0.00 0.00 0.00 29 1007.5
20260505201607 27 194 12.9 24.1 0.00 0.00 0.00 28 1007.7
20260505201056 27 292 3.2 30.6 0.00 0.00 0.00 30 1007.5
20260505200557 27 167 11.3 37.0 0.00 0.00 0.00 32 1007.7
20260505200105 27 321 9.7 37.0 0.00 0.00 0.00 30 1007.6
20260505195555 27 279 8.0 37.0 0.00 0.00 0.00 29 1007.6
20260505195056 27 279 8.0 32.2 0.00 0.00 0.00 31 1007.7
20260505194606 27 225 11.3 32.2 0.00 0.00 0.00 33 1007.6
20260505194057 27 158 9.7 46.7 0.00 0.00 0.00 31 1007.7
20260505193557 27 274 16.1 46.7 0.00 0.00 0.00 30 1007.6
20260505193056 27 0 4.8 24.1 0.00 0.00 0.00 32 1007.7
20260505192556 27 211 6.4 29.0 0.00 0.00 0.00 32 1007.7
20260505192100 27 258 14.5 29.0 0.00 0.00 0.00 32 1007.7
20260505191557 27 192 4.8 33.8 0.00 0.00 0.00 29 1007.8
20260505191056 27 133 8.0 33.8 0.00 0.00 0.00 28 1007.9
20260505190557 27 136 16.1 33.8 0.00 0.00 0.00 28 1007.9
20260505190107 27 310 14.5 33.8 0.00 0.00 0.00 29 1007.9
20260505185557 27 178 3.2 30.6 0.00 0.00 0.00 32 1008.0
20260505185058 26 134 8.0 30.6 0.00 0.00 0.00 35 1008.0
20260505184604 26 136 11.3 30.6 0.00 0.00 0.00 34 1008.1
20260505184057 26 251 11.3 27.4 0.00 0.00 0.00 34 1008.1
20260505183558 27 202 11.3 27.4 0.00 0.00 0.00 35 1008.2
20260505182556 27 199 9.7 29.0 0.00 0.00 0.00 32 1008.2
20260505182056 27 128 11.3 29.0 0.00 0.00 0.00 32 1008.3
20260505181600 27 226 9.7 27.4 0.00 0.00 0.00 33 1008.4
20260505181056 27 249 8.0 22.5 0.00 0.00 0.00 32 1008.5
20260505180556 27 196 6.4 24.1 0.00 0.00 0.00 32 1008.5
20260505180109 27 154 8.0 22.5 0.00 0.00 0.00 36 1008.6
20260505175556 26 178 9.7 40.2 0.00 0.00 0.00 35 1008.5
20260505175056 27 203 3.2 40.2 0.00 0.00 0.00 38 1008.6
20260505174611 26 200 8.0 33.8 0.00 0.00 0.00 35 1008.7
20260505174056 26 169 6.4 25.7 0.00 0.00 0.00 37 1008.7
20260505173555 26 130 8.0 30.6 0.00 0.00 0.00 38 1008.8
20260505173112 26 113 4.8 30.6 0.00 0.00 0.00 37 1008.8
20260505172556 26 210 3.2 19.3 0.00 0.00 0.00 42 1008.9
20260505172056 26 190 6.4 30.6 0.00 0.00 0.00 39 1008.9
20260505171607 26 210 8.0 30.6 0.00 0.00 0.00 38 1008.9
20260505171057 26 0 9.7 25.7 0.00 0.00 0.00 38 1009.0
20260505170556 27 225 3.2 27.4 0.00 0.00 0.00 37 1009.0
20260505170105 26 0 9.7 27.4 0.00 0.00 0.00 41 1009.1
20260505165556 25 194 11.3 25.7 0.00 0.00 0.00 39 1009.2
20260505165056 26 161 6.4 25.7 0.00 0.00 0.00 39 1009.3
20260505164633 26 167 6.4 17.7 0.00 0.00 0.00 38 1009.3
20260505164057 26 221 4.8 24.1 0.00 0.00 0.00 40 1009.3
20260505163556 25 172 9.7 24.1 0.00 0.00 0.00 41 1009.4
20260505163059 25 173 4.8 19.3 0.00 0.00 0.00 39 1009.4
20260505162556 25 0 4.8 20.9 0.00 0.00 0.00 40 1009.6
20260505162056 25 210 6.4 20.9 0.00 0.00 0.00 40 1009.6
20260505161600 25 202 6.4 17.7 0.00 0.00 0.00 44 1009.6
20260505161057 25 235 6.4 17.7 0.00 0.00 0.00 41 1009.6
20260505160559 25 302 4.8 14.5 0.00 0.00 0.00 41 1009.6
20260505153100 23 0 6.4 19.3 0.00 0.00 0.00 44 1010.0
20260505152558 23 172 4.8 17.7 0.00 0.00 0.00 44 1010.0
20260505152056 23 190 8.0 17.7 0.00 0.00 0.00 46 1010.0
20260505151606 23 34 0.0 17.7 0.00 0.00 0.00 46 1010.0
20260505151056 23 194 6.4 17.7 0.00 0.00 0.00 46 1010.2
20260505150556 23 0 3.2 16.1 0.00 0.00 0.00 47 1010.2
20260505140557 20 0 3.2 12.9 0.00 0.00 0.00 54 1011.0
20260505140117 20 0 3.2 12.9 0.00 0.00 0.00 55 1011.0
20260505124605 17 157 1.6 12.9 0.00 0.00 0.00 64 1010.8
20260505124057 17 0 3.2 12.9 0.00 0.00 0.00 63 1010.9
20260505123559 17 188 3.2 11.3 0.00 0.00 0.00 63 1010.9
20260505123058 17 200 1.6 11.3 0.00 0.00 0.00 64 1010.9
20260505122559 17 150 1.6 12.9 0.00 0.00 0.00 63 1010.9
20260505122057 16 155 3.2 14.5 0.00 0.00 0.00 65 1010.7
20260505121558 16 205 4.8 14.5 0.00 0.00 0.00 66 1010.7
20260505121057 16 0 1.6 11.3 0.00 0.00 0.00 67 1010.5
20260505120557 15 0 1.6 11.3 0.00 0.00 0.00 72 1010.6
20260505120110 15 0 0.0 8.0 0.00 0.00 0.00 77 1010.6
20260505115559 13 0 0.0 11.3 0.00 0.00 0.00 84 1010.4
20260505115056 13 0 0.0 11.3 0.00 0.00 0.00 90 1010.6
20260505114556 12 0 0.0 4.8 0.00 0.00 0.00 91 1010.7
20260505114056 12 0 0.0 0.0 0.00 0.00 0.00 92 1010.7
20260505113556 11 0 0.0 0.0 0.00 0.00 0.00 91 1010.8
20260505113059 11 0 0.0 6.4 0.00 0.00 0.00 91 1010.7
20260505112556 11 0 0.0 6.4 0.00 0.00 0.00 91 1010.8
20260505112056 10 0 0.0 6.4 0.00 0.00 0.00 91 1010.7
20260505111556 10 0 0.0 3.2 0.00 0.00 0.00 90 1010.7
20260505111057 9 0 0.0 0.0 0.00 0.00 0.00 90 1010.8
20260505110557 9 0 0.0 0.0 0.00 0.00 0.00 90 1010.5
20260505110108 9 0 0.0 0.0 0.00 0.00 0.00 90 1010.5
20260505102056 10 0 0.0 4.8 0.00 0.00 0.00 90 1010.3
20260505101600 9 148 0.0 4.8 0.00 0.00 0.00 90 1010.3
20260505101056 9 88 0.0 3.2 0.00 0.00 0.00 89 1010.0
20260505100556 9 0 0.0 3.2 0.00 0.00 0.00 89 1010.2
20260505100056 9 0 0.0 0.0 0.00 0.00 0.00 89 1010.5
20260505095556 9 0 0.0 3.2 0.00 0.00 0.00 89 1010.4
20260505095056 9 0 0.0 4.8 0.00 0.00 0.00 89 1010.6
20260505094555 8 88 0.0 4.8 0.00 0.00 0.00 89 1010.4
20260505094056 8 0 0.0 3.2 0.00 0.00 0.00 88 1010.2
20260505093556 8 0 0.0 0.0 0.00 0.00 0.00 88 1010.6
20260505093056 8 0 0.0 0.0 0.00 0.00 0.00 87 1010.5
20260505092558 8 0 0.0 0.0 0.00 0.00 0.00 87 1010.3
20260505092056 8 0 0.0 0.0 0.00 0.00 0.00 87 1010.3
20260505091609 8 0 0.0 3.2 0.00 0.00 0.00 87 1010.2
20260505091056 8 0 0.0 3.2 0.00 0.00 0.00 87 1010.2
20260505090556 8 190 0.0 3.2 0.00 0.00 0.00 87 1010.0
20260505090056 8 0 0.0 0.0 0.00 0.00 0.00 87 1010.0
20260505085556 8 0 0.0 0.0 0.00 0.00 0.00 87 1010.1
20260505085056 8 0 0.0 1.6 0.00 0.00 0.00 87 1010.1
20260505084559 8 0 0.0 1.6 0.00 0.00 0.00 87 1010.0
20260505084055 8 0 0.0 0.0 0.00 0.00 0.00 87 1009.9
20260505083555 8 0 0.0 0.0 0.00 0.00 0.00 87 1009.9
20260505083058 8 0 0.0 3.2 0.00 0.00 0.00 87 1009.9
20260505082556 8 0 0.0 3.2 0.00 0.00 0.00 87 1009.9
20260505082057 8 0 0.0 3.2 0.00 0.00 0.00 87 1009.9
20260505081557 8 0 0.0 0.0 0.00 0.00 0.00 86 1009.9
20260505081057 8 0 0.0 0.0 0.00 0.00 0.00 85 1009.9
20260505080557 8 0 0.0 0.0 0.00 0.00 0.00 85 1009.8
20260505080106 8 0 0.0 0.0 0.00 0.00 0.00 85 1009.9
20260505075556 8 0 0.0 0.0 0.00 0.00 0.00 85 1009.9
20260505075056 8 0 0.0 0.0 0.00 0.00 0.00 85 1009.9
20260505074556 8 0 0.0 0.0 0.00 0.00 0.00 85 1009.9
20260505074056 8 0 0.0 0.0 0.00 0.00 0.00 85 1009.8
20260505073556 8 0 0.0 0.0 0.00 0.00 0.00 85 1009.7
20260505073103 8 0 0.0 0.0 0.00 0.00 0.00 86 1009.6
20260505072556 8 0 0.0 3.2 0.00 0.00 0.00 86 1009.6
20260505072056 8 0 0.0 3.2 0.00 0.00 0.00 86 1009.7
20260505071558 8 0 0.0 3.2 0.00 0.00 0.00 86 1009.7
20260505071057 8 0 0.0 0.0 0.00 0.00 0.00 86 1009.7
20260505070556 8 0 0.0 0.0 0.00 0.00 0.00 86 1009.6
20260505070058 8 0 0.0 0.0 0.00 0.00 0.00 86 1009.8
20260505065556 8 0 0.0 0.0 0.00 0.00 0.00 86 1009.8
20260505065057 8 0 0.0 0.0 0.00 0.00 0.00 85 1009.8
20260505064601 8 0 0.0 0.0 0.00 0.00 0.00 85 1009.8
20260505064056 8 0 0.0 0.0 0.00 0.00 0.00 84 1009.8
20260505063556 8 0 0.0 0.0 0.00 0.00 0.00 84 1009.8
20260505063114 8 0 0.0 0.0 0.00 0.00 0.00 83 1009.8
20260505062556 8 0 0.0 0.0 0.00 0.00 0.00 83 1009.9
20260505062055 8 0 0.0 1.6 0.00 0.00 0.00 82 1009.9
20260505061558 8 0 0.0 1.6 0.00 0.00 0.00 81 1009.9
20260505061056 8 0 0.0 0.0 0.00 0.00 0.00 81 1009.9
20260505060557 8 0 0.0 0.0 0.00 0.00 0.00 80 1009.9
20260505060059 9 0 0.0 3.2 0.00 0.00 0.00 80 1009.8
20260505055557 9 0 0.0 3.2 0.00 0.00 0.00 79 1009.8
20260505055057 9 202 0.0 0.0 0.00 0.00 0.00 78 1009.7
20260505054609 10 0 0.0 3.2 0.00 0.00 0.00 77 1009.7
20260505054057 10 0 0.0 3.2 0.00 0.00 0.00 77 1009.7
20260505053556 10 0 0.0 3.2 0.00 0.00 0.00 76 1009.7
20260505053102 10 0 0.0 6.4 0.00 0.00 0.00 74 1009.7
20260505052556 10 0 0.0 6.4 0.00 0.00 0.00 73 1009.7
20260505052056 10 125 0.0 6.4 0.00 0.00 0.00 73 1009.7
20260505051556 10 0 0.0 6.4 0.00 0.00 0.00 73 1009.6
20260505051057 11 0 0.0 9.7 0.00 0.00 0.00 72 1009.6
20260505050556 10 0 1.6 9.7 0.00 0.00 0.00 72 1009.7
20260505041600 11 0 0.0 3.2 0.00 0.00 0.00 67 1009.7
20260505041059 12 0 0.0 3.2 0.00 0.00 0.00 68 1009.8
20260505040600 12 0 0.0 11.3 0.00 0.00 0.00 68 1009.8
20260505040058 11 0 1.6 11.3 0.00 0.00 0.00 69 1009.8
20260505035556 10 0 0.0 8.0 0.00 0.00 0.00 73 1009.7
20260505035059 9 0 0.0 6.4 0.00 0.00 0.00 79 1009.7
20260505034558 9 0 0.0 6.4 0.00 0.00 0.00 80 1009.8
20260505034059 9 96 0.0 6.4 0.00 0.00 0.00 80 1009.7
20260505033600 9 0 0.0 6.4 0.00 0.00 0.00 80 1009.8
20260505033059 9 0 0.0 4.8 0.00 0.00 0.00 80 1009.8
20260505032556 9 0 0.0 3.2 0.00 0.00 0.00 79 1009.8
20260505032055 9 0 0.0 3.2 0.00 0.00 0.00 79 1010.0
20260505031607 9 0 0.0 3.2 0.00 0.00 0.00 79 1009.9
20260505031057 9 0 0.0 3.2 0.00 0.00 0.00 78 1009.9
20260505030556 10 0 0.0 3.2 0.00 0.00 0.00 78 1009.9
20260505030103 10 0 0.0 4.8 0.00 0.00 0.00 77 1010.0
20260505025557 9 0 0.0 8.0 0.00 0.00 0.00 78 1009.9
20260505025058 9 136 0.0 8.0 0.00 0.00 0.00 78 1009.9
20260505024606 9 0 0.0 4.8 0.00 0.00 0.00 78 1010.0
20260505024056 9 0 0.0 6.4 0.00 0.00 0.00 78 1010.0
20260505023556 9 53 0.0 6.4 0.00 0.00 0.00 78 1009.9
20260505023059 9 101 0.0 3.2 0.00 0.00 0.00 79 1010.0
20260505022556 9 0 0.0 6.4 0.00 0.00 0.00 79 1010.0
20260505022056 9 0 0.0 6.4 0.00 0.00 0.00 79 1010.0
20260505021600 9 0 0.0 3.2 0.00 0.00 0.00 79 1010.1
20260505021056 10 0 0.0 3.2 0.00 0.00 0.00 78 1010.1
20260505020556 10 104 0.0 3.2 0.00 0.00 0.00 78 1010.1
20260505020057 10 0 0.0 3.2 0.00 0.00 0.00 77 1010.0
20260505015557 10 0 0.0 1.6 0.00 0.00 0.00 76 1010.1
20260505015059 10 0 0.0 1.6 0.00 0.00 0.00 75 1010.0
20260505014610 10 0 0.0 1.6 0.00 0.00 0.00 74 1010.0